This is the latest recevied weather packets stored in our database for station/object K7KAZ. If no packets are shown the sender has not sent any weather packets the latest 10 day(s).
| Time | Temp. | Humidity | Pressure | Rain* | Wind** | Luminosity | Snow |
|---|---|---|---|---|---|---|---|
| 1777664151 | 26.67° C | 29% | 1013.8 hPa | 0 mm | - | 755 W/m² | - |
| 1777663850 | 26.67° C | 30% | 1013.9 hPa | 0 mm | - | 745 W/m² | - |
| 1777663546 | 27.22° C | 29% | 1014 hPa | 0 mm | - | 776 W/m² | - |
| 1777663244 | 26.67° C | 30% | 1014.1 hPa | 0 mm | - | 754 W/m² | - |
| 1777662941 | 26.67° C | 30% | 1014.1 hPa | 0 mm | - | 714 W/m² | - |
| 1777662638 | 27.22° C | 30% | 1014.4 hPa | 0 mm | - | 701 W/m² | - |
| 1777662334 | 27.22° C | 30% | 1014.3 hPa | 0 mm | - | 710 W/m² | - |
| 1777662029 | 26.67° C | 31% | 1014.4 hPa | 0 mm | - | 703 W/m² | - |
| 1777661726 | 27.22° C | 30% | 1014.5 hPa | 0 mm | - | 729 W/m² | - |
| 1777661422 | 26.67° C | 30% | 1014.3 hPa | 0 mm | - | 799 W/m² | - |
| 1777661118 | 26.67° C | 31% | 1014.6 hPa | 0 mm | - | 659 W/m² | - |
| 1777660812 | 25.56° C | 32% | 1014.5 hPa | 0 mm | - | 727 W/m² | - |
| 1777660510 | 26.67° C | 31% | 1014.7 hPa | 0 mm | - | 776 W/m² | - |
| 1777660206 | 25.56° C | 32% | 1014.7 hPa | 0 mm | - | 648 W/m² | - |
| 1777659903 | 26.11° C | 32% | 1014.8 hPa | 0 mm | - | 796 W/m² | - |
| 1777659599 | 25.56° C | 32% | 1015.1 hPa | 0 mm | - | 743 W/m² | - |
| 1777659297 | 26.11° C | 32% | 1014.8 hPa | 0 mm | - | 697 W/m² | - |
| 1777658994 | 26.11° C | 32% | 1015 hPa | 0 mm | - | 716 W/m² | - |
| 1777658691 | 25.56° C | 33% | 1015.1 hPa | 0 mm | - | 696 W/m² | - |
| 1777658386 | 25.56° C | 32% | 1015.2 hPa | 0 mm | - | 729 W/m² | - |
| 1777658084 | 25.56° C | 32% | 1015.2 hPa | 0 mm | - | 727 W/m² | - |
| 1777657780 | 26.11° C | 32% | 1015.3 hPa | 0 mm | - | 752 W/m² | - |
| 1777657478 | 25° C | 34% | 1015.5 hPa | 0 mm | - | 729 W/m² | - |
| 1777657176 | 25.56° C | 33% | 1015.2 hPa | 0 mm | - | 729 W/m² | - |
| 1777656873 | 25° C | 34% | 1015.5 hPa | 0 mm | - | 760 W/m² | - |
* Rain latest hour (hover to see other rain measurements)
** Current wind speed in m/s (hover to see current wind gust speed)